Regional Weather Roundup
Issued by NWS

Home | Current Version | Previous Version | Text Only | Print | Product List | Glossary On
Versions: 1 2 3 4 5 6 7 8 9 10 11 12 13 14 15 16 17 18 19 20 21 22 23 24 25 26 27 28 29 30 31 32 33 34 35 36 37 38 39 40 41 42 43 44 45 46 47 48 49 50
000
ASUS43 KTOP 221608
RWRKS

WEATHER ROUNDUP FOR KANSAS
NATIONAL WEATHER SERVICE GOODLAND KS
1100 AM CDT MON MAY 22 2017

NOTE:  "FAIR" INDICATES FEW OR NO CLOUDS BELOW 12,000 FEET WITH NO
SIGNIFICANT WEATHER AND/OR OBSTRUCTIONS TO VISIBILITY.

KSZ001>006-013>018-027>032-041>047-221700-
NORTHWEST KANSAS

CITY           SKY/WX    TMP DP  RH WIND       PRES   REMARKS
GOODLAND       CLOUDY    61  51  70 NW12      30.09F
HAYS           LGT RAIN  57  54  89 S5        30.06S
HILL CITY      CLOUDY    59  53  80 W6        30.06F
RUSSELL        LGT RAIN  56  55  97 SW7       30.05F
$$

KSZ061>065-074>080-084>089-221700-
SOUTHWEST KANSAS

CITY           SKY/WX    TMP DP  RH WIND       PRES   REMARKS
DODGE CITY     CLOUDY    60  54  80 SW12      30.07F
ELKHART          N/A     58  43  58 SW2         N/A
GARDEN CITY    CLOUDY    59  53  80 NW10      30.09F
LIBERAL        CLOUDY    60  51  72 W8        30.12S
PRATT          CLOUDY    57  49  75 SW17G24   30.07F
$$

KSZ066>073-081>083-090>101-221700-
SOUTHEAST KANSAS

CITY           SKY/WX    TMP DP  RH WIND       PRES   REMARKS
CHANUTE        CLOUDY    70  54  56 S13       30.08F
COFFEYVILLE    MOSUNNY   70  59  68 SW6       30.09F
HUTCHINSON     CLOUDY    66  54  65 SW14      30.06F
MEDICINE LODGE   N/A     63  47  55 SW13      30.06F
NEWTON         CLOUDY    64  54  69 SW9       30.07F
PARSONS        MOSUNNY   70  54  56 S7        30.10F
WICHITA INTL   CLOUDY    64  55  72 SW12      30.06F
WICHITA JABRA  CLOUDY    65  52  62 SW13      30.06F
WICHITA MCCONL CLOUDY    65  52  63 SW12      30.06F
WINFIELD       CLOUDY    66  52  60 SW13      30.09F
$$

KSZ007>012-019>026-033>040-048>060-102>105-221700-
NORTHEAST KANSAS

CITY           SKY/WX    TMP DP  RH WIND       PRES   REMARKS
CONCORDIA      HVY RAIN  56  56 100 W5        30.04S FOG
EMPORIA        PTSUNNY   65  56  72 SW10      30.07F
LAWRENCE       CLOUDY    62  57  83 SW7       30.06F
MANHATTAN      CLOUDY    61  58  90 SW6       30.03F
MARYSVILLE     LGT RAIN  59  55  88 SW12      30.03S
OLATHE IND     CLOUDY    63  56  78 SW13      30.08F
OLATHE EXE     CLOUDY    61  56  83 SW6       30.07F
SALINA         CLOUDY    68  58  70 S15       30.04F
TOPEKA BILLARD CLOUDY    63  58  83 SW3       30.04F
TOPEKA FORBES  CLOUDY    65  59  81 SW5       30.05F
$$




USA.gov is the U.S. government's official web portal to all federal, state and local government web resources and services.